This is the latest recevied weather packets stored in our database for station/object OZ1IEP-5. If no packets are shown the sender has not sent any weather packets the latest 10 day(s).
| Time | Temp. | Humidity | Pressure | Rain* | Wind** | Luminosity | Snow |
|---|---|---|---|---|---|---|---|
| 1777752605 | 16.67° C | 55% | 1011 hPa | 0 mm | - | 0 W/m² | - |
| 1777752008 | 16.67° C | 55% | 1011.1 hPa | 0 mm | - | 0 W/m² | - |
| 1777751406 | 16.67° C | 55% | 1011.2 hPa | 0 mm | - | 0 W/m² | - |
| 1777750806 | 17.22° C | 54% | 1011.3 hPa | 0 mm | - | 0 W/m² | - |
| 1777750208 | 17.22° C | 54% | 1011.3 hPa | 0 mm | - | 0 W/m² | - |
| 1777749606 | 17.22° C | 54% | 1011.4 hPa | 0 mm | - | 0 W/m² | - |
| 1777749005 | 17.78° C | 53% | 1011.4 hPa | 0 mm | - | 0 W/m² | - |
| 1777748419 | 18.33° C | 52% | 1011.4 hPa | 0 mm | - | 0 W/m² | - |
| 1777747806 | 18.33° C | 50% | 1011.4 hPa | 0 mm | - | 0 W/m² | - |
| 1777747206 | 18.89° C | 49% | 1011.3 hPa | 0 mm | - | 0 W/m² | - |
| 1777746607 | 18.89° C | 48% | 1011 hPa | 0 mm | - | 0 W/m² | - |
| 1777746006 | 19.44° C | 47% | 1011 hPa | 0 mm | - | 7 W/m² | - |
| 1777745405 | 20° C | 46% | 1010.9 hPa | 0 mm | - | 11 W/m² | - |
| 1777744808 | 20.56° C | 45% | 1010.9 hPa | 0 mm | - | 25 W/m² | - |
| 1777744205 | 20.56° C | 44% | 1010.9 hPa | 0 mm | - | 35 W/m² | - |
| 1777743605 | 21.11° C | 43% | 1011 hPa | 0 mm | - | 42 W/m² | - |
| 1777743008 | 21.11° C | 43% | 1010.9 hPa | 0 mm | - | 53 W/m² | - |
| 1777742405 | 21.11° C | 43% | 1010.9 hPa | 0 mm | - | 63 W/m² | - |
| 1777741806 | 21.67° C | 41% | 1010.9 hPa | 0 mm | - | 111 W/m² | - |
| 1777741207 | 21.67° C | 40% | 1011.1 hPa | 0 mm | - | 81 W/m² | - |
| 1777740605 | 21.67° C | 39% | 1011.3 hPa | 0 mm | - | 67 W/m² | - |
| 1777740006 | 22.22° C | 38% | 1011.4 hPa | 0 mm | - | 32 W/m² | - |
| 1777739407 | 22.22° C | 38% | 1011.4 hPa | 0 mm | - | 49 W/m² | - |
| 1777738805 | 22.22° C | 38% | 1011.5 hPa | 0 mm | - | 49 W/m² | - |
| 1777738206 | 22.78° C | 41% | 1011.7 hPa | 0 mm | - | 51 W/m² | - |
* Rain latest hour (hover to see other rain measurements)
** Current wind speed in m/s (hover to see current wind gust speed)